Location: Fountain Hills
(33.6120°N, 111.7170°W)
Time: 11:58:31
(UTC-07:00)

Hamsat - Visible Passes

Search period start: 14 February 2016 00:00
Search period end: 24 February 2016 00:00
Orbit: 588 x 620 km, 97.6° (Epoch: 13 February)

Date Brightness Start Highest point End Pass type
(mag) Time Alt. Az. Time Alt. Az. Time Alt. Az.
14 Feb ? 05:11:27 10° NNE 05:15:48 79° ESE 05:16:34 59° S visible
15 Feb ? 05:23:46 10° N 05:28:05 73° WNW 05:29:18 46° SSW visible
16 Feb ? 04:03:23 10° E 04:04:19 11° E 04:05:11 10° ESE visible
16 Feb ? 05:36:09 10° N 05:40:22 51° WNW 05:42:02 32° SW visible
17 Feb ? 04:14:11 10° ENE 04:16:44 15° E 04:17:54 14° ESE visible
17 Feb ? 05:48:39 10° N 05:52:37 36° WNW 05:54:45 22° WSW visible
18 Feb ? 04:25:48 10° NE 04:29:07 21° E 04:30:38 18° ESE visible
18 Feb ? 06:01:15 10° NNW 06:04:50 26° WNW 06:07:28 15° WSW visible
19 Feb ? 04:37:41 10° NE 04:41:29 30° E 04:43:20 21° SE visible
19 Feb ? 06:14:00 10° NNW 06:17:02 19° WNW 06:20:04 10° WSW visible
20 Feb ? 04:49:42 10° NNE 04:53:49 42° E 04:56:03 23° SSE visible
20 Feb ? 06:27:01 10° NW 06:29:13 14° WNW 06:31:24 10° W visible
21 Feb ? 05:01:51 10° NNE 05:06:08 60° E 05:08:45 22° S visible
22 Feb ? 05:14:05 10° NNE 05:18:25 87° E 05:21:26 19° S visible
23 Feb ? 05:26:24 10° N 05:30:41 66° WNW 05:34:07 15° SSW visible
